DAL106 KLAX-LLBG

Flight info

Callsign DAL106
Flight time N/A
Altitude 35000
Route DOTSS2 CLEEE DCT PKE DCT HIDAT DCT KA27O DCT KA27Q DCT KA27U/N0488F370 DCT KF33A DCT KK45G DCT KK51K DCT ROD DCT KC66S DCT SYR DCT KB90C DCT TAFFY/N0490F390 DCT MELDI/M084F390 DCT 5430N05000W 56N040W 5530N03000W 55N020W DCT RESNO/N0489F390 DCT NETKI DCT LIPGO/N0487F410 DCT NUCHU L607 BIG L15 MOTOX DCT RUCAC DCT LESDO DCT BUBLI DCT LUVAL DCT SHARA DCT DEVDI DCT RIPUS DCT RESIA DCT LAPAB DCT LABIN DCT PINDO DCT NEVRA DCT AKINA DCT VANZA DCT PIKOG L609 ZUKKO
Aircraft A359/H-SDE2E3GHIJ3J4J5LM1ORWXY/LB1D1

Departure

Time 2026-05-08 00:53
Airport Los Angeles International Airport (KLAX)

Arrival

Time N/A
Airport Ben Gurion International Airport (LLBG)
Time Latitude Longitude Altitude Speed Heading
2026-05-08 00:37 33.93961 -118.40922 132 ft 0 kts 290°
2026-05-08 00:44 33.93953 -118.40896 124 ft 4 kts 290°
2026-05-08 00:45 33.93944 -118.40866 128 ft 4 kts 278°
2026-05-08 00:45 33.93946 -118.40836 132 ft 4 kts 237°
2026-05-08 00:45 33.93964 -118.40818 124 ft 4 kts 184°
2026-05-08 00:45 33.93985 -118.40820 127 ft 4 kts 173°
2026-05-08 00:46 33.94004 -118.40823 132 ft 0 kts 173°
2026-05-08 00:48 33.93960 -118.40816 130 ft 18 kts 174°
2026-05-08 00:48 33.93855 -118.40752 125 ft 24 kts 146°
2026-05-08 00:48 33.93811 -118.40601 126 ft 17 kts 76°
2026-05-08 00:48 33.93838 -118.40435 124 ft 25 kts 80°
2026-05-08 00:49 33.93866 -118.40205 124 ft 26 kts 88°
2026-05-08 00:49 33.93880 -118.39988 129 ft 26 kts 82°
2026-05-08 00:49 33.93902 -118.39773 129 ft 26 kts 83°
2026-05-08 00:49 33.93926 -118.39558 120 ft 26 kts 83°
2026-05-08 00:50 33.93946 -118.39342 130 ft 26 kts 83°
2026-05-08 00:50 33.93967 -118.39124 124 ft 26 kts 84°
2026-05-08 00:50 33.93989 -118.38905 132 ft 26 kts 83°
2026-05-08 00:50 33.94012 -118.38690 123 ft 26 kts 83°
2026-05-08 00:51 33.94036 -118.38471 122 ft 26 kts 82°
2026-05-08 00:51 33.94061 -118.38251 132 ft 26 kts 82°
2026-05-08 00:51 33.94076 -118.38097 128 ft 7 kts 83°
2026-05-08 00:51 33.94077 -118.38095 128 ft 0 kts 83°
2026-05-08 00:52 33.94062 -118.38020 123 ft 19 kts 139°
2026-05-08 00:52 33.93977 -118.38096 129 ft 20 kts 261°
2026-05-08 00:52 33.93937 -118.38481 124 ft 75 kts 262°
2026-05-08 00:53 33.93849 -118.39316 129 ft 124 kts 261°
2026-05-08 00:53 33.93745 -118.40360 135 ft 161 kts 263°
2026-05-08 00:53 33.93600 -118.41738 521 ft 168 kts 257°
2026-05-08 00:53 33.93249 -118.43098 1042 ft 172 kts 245°
2026-05-08 00:54 33.92751 -118.44436 1539 ft 183 kts 248°
2026-05-08 00:54 33.92210 -118.45880 1863 ft 198 kts 248°
2026-05-08 00:54 33.91626 -118.47433 2195 ft 209 kts 247°
2026-05-08 00:54 33.91013 -118.49093 2453 ft 226 kts 247°
2026-05-08 00:55 33.90308 -118.50893 2656 ft 247 kts 241°
2026-05-08 00:55 33.89169 -118.52485 3117 ft 257 kts 219°
2026-05-08 00:55 33.87509 -118.53309 3673 ft 265 kts 188°
2026-05-08 00:55 33.85647 -118.53470 4166 ft 269 kts 192°
2026-05-08 00:56 33.84410 -118.53684 4534 ft 271 kts 191°
2026-05-08 00:56 33.83382 -118.53823 4854 ft 273 kts 188°
2026-05-08 00:56 33.81464 -118.53935 5392 ft 278 kts 183°
2026-05-08 00:56 33.79521 -118.53824 5933 ft 282 kts 176°
2026-05-08 00:57 33.77591 -118.53467 6477 ft 286 kts 172°
2026-05-08 00:57 33.75614 -118.53171 7012 ft 287 kts 178°
2026-05-08 00:57 33.73608 -118.52997 7558 ft 291 kts 176°
2026-05-08 00:57 33.71649 -118.52513 8127 ft 296 kts 159°
2026-05-08 00:58 33.69907 -118.51212 8735 ft 298 kts 134°
2026-05-08 00:58 33.68785 -118.49155 9409 ft 295 kts 110°
2026-05-08 00:58 33.68084 -118.46834 10088 ft 295 kts 106°